Showing default

INTELSAT 515, 19772

Orbit data source: Space-Track

INTELSAT 515, 19772 is a payload satellite owned by INTELSAT (US) in GEO that was launched on Fri, 27 Jan 1989 UTC via an ARIANE 2 launch vehicle from the French Guiana (FRGUI). Payload-class satellites include a variety of spacecraft equipped with specific instruments for various scientific and technological missions. These include communications satellites like Starlink; space stations such as the ISS; scientific satellites like the Hubble; Earth observation satellites from companies like Planet Labs, Umbra, and HawkEye 360; GPS; miniature CubeSats for education and research; and military/defense satellites.

Loading next visibility...
Identifier
19772, 1989-006A
Orbit
GEO
Country
Flag of UnknownUnknown / ITSO
Related business
Manufacturer
Ford Ae
Mission
Non-operational Civil Communications
Bus & Motor
FS INTELSAT 5, STAR 37XF
Mass
1,981 kg wet, 884 kg dry
Launch date (UTC)
1989-01-27 (37 years ago)
Launch vehicle
ARIANE 2
Launch site
French Guiana (FRGUI)
Object type
Payload
Rocket body
Debris
Shape & HBR
Hex Poly + 2 Pan, 8.0 m
Radar Cross Section
18.961 m², Large (>1 m²)

Expand to show TLE details & history
Last TLE update: 1 day ago

TLE from 1 day ago
0 INTELSAT 515
1 19772U 89006A   26045.48762314  .00000058  00000-0  00000-0 0  9994
2 19772  14.9145 355.1145 0016910 116.4398  83.9194  0.99100552123400
Epoch: 2026-02-14T11:42Z
TLE epoch observation values (Epoch: 2026-02-14T11:42:10.639Z)
Latitude
-5.183°
Longitude
-125.0092°
Altitude
36,110.752 km
Speed
3.063 km/s
True Right ascension
13h 00m 10s
True Declination
-5° 10' 40"
Sunlit
Object was in daylight at epoch
Visualization orbit readout
Latitude
Unknown
Longitude
Unknown
Altitude
Unknown
Speed
Unknown
Apparent Right ascension
Unknown
Apparent Declination
Unknown
Sunlit
N/A
Visualization observer readout
Local Sidereal Time
17:15:28
Azimuth
Unknown
Elevation
Unknown
Doppler factor
Unknown
Orbital elements
Apogee altitude
36,190.986 km
Perigee altitude
36,047.26 km
Semi-major axis
42,497.26 km
Eccentricity
0.00169
Inclination
14.9145°
RAAN
355.1145°
Arg. of periapsis
116.4398°
True anomaly
84.11213°
Mean anomaly
83.9194°
Eccentric anomaly
84.01576°
Mean motion
0.24774 °/min
Orbital period
1,453.12 mins
BSTAR
0
Loading maneuver chart data...
Computing Atmospheric mass density...
Loading historical data...
Loading historical data...
Loading historical data...
Loading historical data...
Loading historical data...
Loading historical data...
Loading historical data...

Documentation

Showing up to 5 results
|